SCP
0 0 0 0 0 0 0 0 0 0 0 0 0 0 0 0 0 0 0 0 0 0 0 0 0 0 0 0 0 0 0 0 0 0 0 0 0 0
0 0 0 0 0 0 0 0 0 0 0 0 0 0 0 0 0 0 0 0 0 0 0 0 0 0 0 0 0 0 0 0 0 0 0 0 0 0
0 0 0 0 0 0 0 0 0 0 0 0 0 0 0 0 0 0 0 0 0 0 0 0 0 0 0 0 0 0 0 0 0 0 0 0 0 0
0 0 0 0 0 0 0 0 0 0 0 0 0 0 0 0 0 0 0 0 0 0 0 0 0 0 0 0 0 0 0 0 0 0 0 0 0 0
0 0 0 0 0 0 0 0 0 0 0 0 0 0 0 0 0 0 0 0 0 0 0 0 0 0 0 0 0 0 0 0 0 0 0 0 0 0
0 0 0 0 0 0 0 0 0 0 0 0 0 0 0 0 0 0 0 0 0 0 0 0 0 0 0 0 0 0 0 0 0 0 0 0 0 0
0 0 0 0 0 0 0 0 0 0 0 0 0 0 0 0 0 0 0 0 0 0 0 0 0 0 0 0 0 0 0 0 0 0 0 0 0 0
0 0 0 0 0 0 0 0 0 0 0 0 0 0 0 0 0 0 0 0 0 0 0 0 0 0 0 0 0 0 0 0 0 0 0 0 0 0
0 0 0 0 0 0 0 0 0 0 0 0 0 0 0 0 0 0 0 0 0 0 0 0 0 0 0 0 0 0 0 0 0 0 0 0 0 0
0 0 0 0 0 0 0 0 0 0 0 0 0 0 0 0 0 0 0 0 0 0 0 0 0 0 0 0 -0 0 0 0 0 0 0 0 0 0
0 0 0 0 0 0 0 0 0 0 0 0 0 0 0 0 0 0 0 0 0 0 0 0 0 0 0 0 0 0 0 0 0 0 0 0 0 0
0 0 0 0 0 0 0 0 0 0 0 0 0 0 0 0 0 0 0 0 0 0 0 0 0 0 0 0 0 0 0 0 0 0 0 0 0 0
0 0 0 0 0 0 0 0 0 0 0 0 0 0 0 0 0 0 0 0 0 0 0 0 0 0 0 0 0 0 0 0 0 0 0 0 0 0
0 0 0 0 0 0 0 0 0 0 0 0 0 0 0 0 0 0 0 0 0 0 0 0 0 0 0 0 0 0 0 0 0 0 0 0 0 0
0 0 0 0 0 0 0 0 0 0 0 0 0 0 0 0 0 0 0 0 0 0 0 0 0 0 0 0 0 0 0 0 0 0 0 0 0 0
0 0 0 0 0 0 0 0 0 0 0 0 0 0 0 0 0 0 0 0 0 0 0 0 0 0 0 0 0 0 0 0 0 0 0 0 0 0
0 0 0 0 0 0 0 0 0 0 0 0 0 0 0 0 0 0 0 0 0 0 0 0 0 0 0 0 0 0 0 0 0 0 0 0 0 0
0 0 0 0 0 0 0 0 0 0 0 0 0 0 0 0 0 0 0 0 0 0 0 0 0 0 0 0 0 0 0 0 0 0 0 0 0 0
0 0 0 0 0 0 0 0 0 0 0 0 0 0 0 0 0 0 0 0 0 0 0 0 0 0 0 0 0 0 0 0 0 0 0 0 0 0
0 0 0 0 0 0 0 0 0 0 0 0 0 0 0 0 0 0 0 0 0 0 0 0 0 0 0 0 0 0 0 0 0 0 0 0 0 0
0 0 0 0 0 0 0 0 0 0 0 0 0 0 0 0 0 0 0 0 0 0 0 0 0 0 0 0 0 0 0 0 0 0 0 0 0 0
0 0 0 0 0 0 0 0 0 0 0 0 0 0 0 0 0 0 0 0 0 0 0 0 0 0 0 0 0 0 0 0 0 0 0 0 0 0
0 0 0 0 0 0 0 0 0 0 0 0 0 0 0 0 0 0 0 0 0 0 0 0 0 0 0 0 0 0 0 0 0 0 0 0 0 0
Wind_Speed_500mb
118 127 121 117 102 79 70 64 60 49 55 56 47 54 49 41 32 32 27 23 24 23 25 28 31 33 35 37 41 45 49 47 45 44 46 47 47 49
122 119 117 100 81 64 48 44 45 41 43 57 55 45 46 40 34 31 28 24 22 21 27 29 31 33 36 40 45 50 49 49 48 47 48 48 48 49
106 105 87 76 70 59 50 52 45 36 40 47 43 39 44 37 33 30 25 22 22 25 27 29 32 37 38 43 49 51 49 50 51 53 53 50 49 51
77 68 65 62 55 56 54 42 41 41 41 43 44 43 41 37 32 27 23 23 24 23 25 31 32 35 40 46 50 46 48 52 56 58 59 52 53 53
71 63 65 65 67 57 50 52 45 39 32 32 45 45 40 37 28 25 25 23 22 24 26 31 32 37 43 46 45 44 48 54 56 55 53 52 50 51
52 60 68 61 57 63 55 48 45 37 35 35 36 41 36 29 26 25 21 23 24 25 25 32 35 43 48 47 43 45 49 52 47 51 54 51 50 53
77 69 59 59 57 52 48 41 35 37 37 38 35 36 30 25 23 21 22 21 24 30 24 37 43 46 47 44 44 46 48 46 44 54 53 49 50 52
73 71 68 64 58 46 36 36 32 32 34 35 32 28 23 21 22 18 19 20 26 36 44 34 47 49 52 51 51 52 46 38 48 52 51 48 53 58
67 67 63 53 45 45 44 42 36 33 26 22 21 20 21 19 16 17 20 25 30 36 55 51 51 53 57 58 54 45 37 50 50 54 48 50 58 61
59 54 50 49 45 39 36 34 31 28 24 22 20 18 14 13 15 19 24 30 34 38 52 62 57 66 68 65 47 41 53 52 57 51 51 52 57 61
50 48 45 41 36 33 30 28 27 25 23 18 13 11 12 15 18 23 28 36 42 42 49 52 62 74 79 68 52 62 62 62 54 59 50 54 58 56
45 40 33 30 28 26 25 25 25 21 15 10 9 10 13 17 23 27 31 35 40 47 42 56 61 67 73 71 78 72 77 69 66 65 61 54 44 54
32 31 28 26 25 25 25 21 16 12 10 9 10 12 17 22 25 28 32 35 40 43 48 57 67 66 65 77 85 82 76 78 72 66 60 46 56 46
21 26 29 29 23 19 16 14 12 10 11 12 14 17 21 25 30 34 38 40 42 47 46 49 62 63 67 81 86 85 80 79 69 64 53 61 60 61
17 19 18 16 16 16 17 16 14 15 16 17 20 22 26 30 34 36 41 45 44 45 47 49 56 60 62 71 79 83 83 85 58 65 66 64 68 67
20 20 18 17 18 18 18 19 19 20 23 26 27 29 31 34 36 41 45 49 54 49 45 49 55 61 64 65 67 76 73 75 65 63 66 69 71 65
14 17 18 20 21 22 23 25 27 29 29 31 32 33 36 38 40 45 49 52 55 60 57 49 53 60 63 64 72 70 68 62 58 64 68 76 76 67
22 24 26 28 28 28 29 32 34 35 34 35 36 38 40 43 44 47 51 54 58 60 61 58 61 65 68 72 62 59 60 64 62 72 74 83 89 75
32 32 32 33 33 36 37 38 39 38 39 39 40 41 45 47 50 52 51 54 58 61 61 62 61 60 66 77 76 49 43 60 70 73 69 73 81 79
36 38 39 39 41 42 42 42 41 43 44 45 46 47 50 52 53 54 52 55 58 63 65 61 57 54 56 64 70 75 56 62 66 70 72 72 76 80
38 42 44 46 47 46 46 47 48 50 52 52 52 52 52 53 55 56 56 56 61 63 66 63 55 53 54 55 66 74 66 52 57 60 65 73 81 84
39 44 45 49 53 54 53 54 55 56 56 56 55 55 53 54 56 57 57 62 63 61 64 61 55 52 49 50 62 70 71 67 55 54 52 55 62 67
50 49 52 55 57 59 60 60 60 60 60 59 58 57 56 56 56 58 61 64 60 59 58 58 53 48 48 52 59 66 67 69 68 68 63 59 56 52
Wind_Direction_500mb
227 223 224 225 223 221 217 217 212 178 197 208 212 215 217 218 219 233 241 248 260 279 292 301 307 311 319 322 319 319 320 318 316 314 312 312 311 310
222 220 222 220 219 211 204 199 199 208 187 205 205 204 207 214 222 231 242 259 273 282 290 301 309 314 314 317 320 320 318 318 317 315 313 313 313 311
220 220 214 213 205 196 192 188 199 227 199 184 187 187 203 209 217 232 248 260 274 282 296 309 308 312 318 320 318 318 316 318 315 313 311 311 313 312
206 206 204 196 193 186 184 196 176 157 154 160 180 192 195 206 218 232 249 259 270 288 299 299 310 314 317 318 315 315 315 315 316 316 312 315 313 310
204 195 181 179 170 177 175 162 150 152 163 175 184 186 197 207 217 235 249 266 281 286 297 310 313 314 314 317 320 319 317 316 313 313 315 315 315 314
181 180 172 171 172 160 154 151 157 161 176 183 184 190 198 203 219 237 256 273 287 297 311 310 316 316 320 325 324 320 314 311 309 312 313 313 313 314
160 158 158 157 155 151 150 151 161 177 183 185 185 187 198 209 225 243 258 281 301 305 310 315 322 320 320 325 325 320 319 315 311 313 310 310 311 311
149 146 145 143 137 137 145 168 181 186 183 182 186 192 200 218 235 255 280 305 322 319 317 323 320 323 323 329 332 330 322 315 312 310 309 308 308 310
144 142 137 134 141 157 169 180 175 173 175 181 192 198 209 226 249 278 304 317 323 321 314 322 323 322 325 332 334 330 324 323 322 317 313 309 306 308
135 133 136 151 167 171 168 169 167 168 176 186 194 210 220 248 275 298 312 315 320 326 318 317 327 325 327 330 334 331 327 327 324 315 314 313 310 307
137 149 158 158 158 162 165 163 165 174 182 194 205 231 260 282 297 308 315 320 319 320 320 316 323 323 325 328 332 329 327 326 325 322 314 312 308 307
144 148 157 159 156 158 165 170 179 180 186 198 222 257 283 297 302 310 313 313 316 323 324 317 321 326 326 321 321 327 325 326 328 324 318 314 309 304
152 156 157 160 169 177 182 185 188 196 211 237 255 277 292 297 300 305 307 312 318 318 319 316 315 318 314 312 313 324 323 324 326 320 320 320 317 313
159 163 172 184 185 186 195 207 212 229 248 257 272 282 291 301 305 306 308 311 313 315 316 311 306 312 310 307 310 320 320 320 325 321 322 320 317 320
172 178 186 197 204 209 213 223 237 247 257 270 276 288 297 298 299 303 304 305 309 313 314 309 306 307 306 305 307 313 319 320 323 321 322 319 319 323
196 203 209 215 219 226 238 245 253 263 272 281 289 290 290 293 298 301 302 308 310 313 313 310 309 308 306 306 305 311 315 311 318 319 318 317 319 322
220 228 235 243 245 247 250 255 262 269 277 282 287 290 293 296 303 304 306 308 309 313 315 313 311 309 308 308 306 311 312 310 317 317 317 316 316 321
245 244 246 249 252 257 262 265 270 276 280 283 289 294 299 301 303 302 303 306 308 313 313 317 318 315 312 310 309 311 310 312 318 317 318 315 314 319
252 254 258 263 265 266 268 270 273 277 281 288 293 298 300 302 302 302 303 304 308 310 312 316 317 314 309 306 312 309 304 311 313 310 314 311 311 318
264 265 266 270 270 269 271 274 279 282 288 292 294 297 299 299 300 303 304 306 308 309 309 313 313 312 304 305 302 305 317 316 315 312 316 315 315 316
271 268 270 270 271 272 274 276 280 283 285 288 292 294 297 299 301 303 304 304 307 308 308 312 314 310 309 306 299 309 316 320 318 311 313 308 310 314
285 282 278 275 275 275 275 275 276 278 281 285 289 291 294 295 299 302 302 303 306 307 308 310 312 310 306 301 304 309 315 321 325 321 320 312 301 302
290 287 285 282 278 276 276 276 277 278 280 283 285 289 292 295 299 298 298 302 304 305 306 306 307 306 307 308 308 310 314 319 324 326 327 334 322 308
Wind_Speed_850mb
118 127 121 117 102 79 70 64 60 49 55 56 47 54 49 41 32 32 27 23 24 23 25 28 31 33 35 37 41 45 49 47 45 44 46 47 47 49
122 119 117 100 81 64 48 44 45 41 43 57 55 45 46 40 34 31 28 24 22 21 27 29 31 33 36 40 45 50 49 49 48 47 48 48 48 49
106 105 87 76 70 59 50 52 45 36 40 47 43 39 44 37 33 30 25 22 22 25 27 29 32 37 38 43 49 51 49 50 51 53 53 50 49 51
77 68 65 62 55 56 54 42 41 41 41 43 44 43 41 37 32 27 23 23 24 23 25 31 32 35 40 46 50 46 48 52 56 58 59 52 53 53
71 63 65 65 67 57 50 52 45 39 32 32 45 45 40 37 28 25 25 23 22 24 26 31 32 37 43 46 45 44 48 54 56 55 53 52 50 51
52 60 68 61 57 63 55 48 45 37 35 35 36 41 36 29 26 25 21 23 24 25 25 32 35 43 48 47 43 45 49 52 47 51 54 51 50 53
77 69 59 59 57 52 48 41 35 37 37 38 35 36 30 25 23 21 22 21 24 30 24 37 43 46 47 44 44 46 48 46 44 54 53 49 50 52
73 71 68 64 58 46 36 36 32 32 34 35 32 28 23 21 22 18 19 20 26 36 44 34 47 49 52 51 51 52 46 38 48 52 51 48 53 58
67 67 63 53 45 45 44 42 36 33 26 22 21 20 21 19 16 17 20 25 30 36 55 51 51 53 57 58 54 45 37 50 50 54 48 50 58 61
59 54 50 49 45 39 36 34 31 28 24 22 20 18 14 13 15 19 24 30 34 38 52 62 57 66 68 65 47 41 53 52 57 51 51 52 57 61
50 48 45 41 36 33 30 28 27 25 23 18 13 11 12 15 18 23 28 36 42 42 49 52 62 74 79 68 52 62 62 62 54 59 50 54 58 56
45 40 33 30 28 26 25 25 25 21 15 10 9 10 13 17 23 27 31 35 40 47 42 56 61 67 73 71 78 72 77 69 66 65 61 54 44 54
32 31 28 26 25 25 25 21 16 12 10 9 10 12 17 22 25 28 32 35 40 43 48 57 67 66 65 77 85 82 76 78 72 66 60 46 56 46
21 26 29 29 23 19 16 14 12 10 11 12 14 17 21 25 30 34 38 40 42 47 46 49 62 63 67 81 86 85 80 79 69 64 53 61 60 61
17 19 18 16 16 16 17 16 14 15 16 17 20 22 26 30 34 36 41 45 44 45 47 49 56 60 62 71 79 83 83 85 58 65 66 64 68 67
20 20 18 17 18 18 18 19 19 20 23 26 27 29 31 34 36 41 45 49 54 49 45 49 55 61 64 65 67 76 73 75 65 63 66 69 71 65
14 17 18 20 21 22 23 25 27 29 29 31 32 33 36 38 40 45 49 52 55 60 57 49 53 60 63 64 72 70 68 62 58 64 68 76 76 67
22 24 26 28 28 28 29 32 34 35 34 35 36 38 40 43 44 47 51 54 58 60 61 58 61 65 68 72 62 59 60 64 62 72 74 83 89 75
32 32 32 33 33 36 37 38 39 38 39 39 40 41 45 47 50 52 51 54 58 61 61 62 61 60 66 77 76 49 43 60 70 73 69 73 81 79
36 38 39 39 41 42 42 42 41 43 44 45 46 47 50 52 53 54 52 55 58 63 65 61 57 54 56 64 70 75 56 62 66 70 72 72 76 80
38 42 44 46 47 46 46 47 48 50 52 52 52 52 52 53 55 56 56 56 61 63 66 63 55 53 54 55 66 74 66 52 57 60 65 73 81 84
39 44 45 49 53 54 53 54 55 56 56 56 55 55 53 54 56 57 57 62 63 61 64 61 55 52 49 50 62 70 71 67 55 54 52 55 62 67
50 49 52 55 57 59 60 60 60 60 60 59 58 57 56 56 56 58 61 64 60 59 58 58 53 48 48 52 59 66 67 69 68 68 63 59 56 52
Wind_Direction_850mb
227 223 224 225 223 221 217 217 212 178 197 208 212 215 217 218 219 233 241 248 260 279 292 301 307 311 319 322 319 319 320 318 316 314 312 312 311 310
222 220 222 220 219 211 204 199 199 208 187 205 205 204 207 214 222 231 242 259 273 282 290 301 309 314 314 317 320 320 318 318 317 315 313 313 313 311
220 220 214 213 205 196 192 188 199 227 199 184 187 187 203 209 217 232 248 260 274 282 296 309 308 312 318 320 318 318 316 318 315 313 311 311 313 312
206 206 204 196 193 186 184 196 176 157 154 160 180 192 195 206 218 232 249 259 270 288 299 299 310 314 317 318 315 315 315 315 316 316 312 315 313 310
204 195 181 179 170 177 175 162 150 152 163 175 184 186 197 207 217 235 249 266 281 286 297 310 313 314 314 317 320 319 317 316 313 313 315 315 315 314
181 180 172 171 172 160 154 151 157 161 176 183 184 190 198 203 219 237 256 273 287 297 311 310 316 316 320 325 324 320 314 311 309 312 313 313 313 314
160 158 158 157 155 151 150 151 161 177 183 185 185 187 198 209 225 243 258 281 301 305 310 315 322 320 320 325 325 320 319 315 311 313 310 310 311 311
149 146 145 143 137 137 145 168 181 186 183 182 186 192 200 218 235 255 280 305 322 319 317 323 320 323 323 329 332 330 322 315 312 310 309 308 308 310
144 142 137 134 141 157 169 180 175 173 175 181 192 198 209 226 249 278 304 317 323 321 314 322 323 322 325 332 334 330 324 323 322 317 313 309 306 308
135 133 136 151 167 171 168 169 167 168 176 186 194 210 220 248 275 298 312 315 320 326 318 317 327 325 327 330 334 331 327 327 324 315 314 313 310 307
137 149 158 158 158 162 165 163 165 174 182 194 205 231 260 282 297 308 315 320 319 320 320 316 323 323 325 328 332 329 327 326 325 322 314 312 308 307
144 148 157 159 156 158 165 170 179 180 186 198 222 257 283 297 302 310 313 313 316 323 324 317 321 326 326 321 321 327 325 326 328 324 318 314 309 304
152 156 157 160 169 177 182 185 188 196 211 237 255 277 292 297 300 305 307 312 318 318 319 316 315 318 314 312 313 324 323 324 326 320 320 320 317 313
159 163 172 184 185 186 195 207 212 229 248 257 272 282 291 301 305 306 308 311 313 315 316 311 306 312 310 307 310 320 320 320 325 321 322 320 317 320
172 178 186 197 204 209 213 223 237 247 257 270 276 288 297 298 299 303 304 305 309 313 314 309 306 307 306 305 307 313 319 320 323 321 322 319 319 323
196 203 209 215 219 226 238 245 253 263 272 281 289 290 290 293 298 301 302 308 310 313 313 310 309 308 306 306 305 311 315 311 318 319 318 317 319 322
220 228 235 243 245 247 250 255 262 269 277 282 287 290 293 296 303 304 306 308 309 313 315 313 311 309 308 308 306 311 312 310 317 317 317 316 316 321
245 244 246 249 252 257 262 265 270 276 280 283 289 294 299 301 303 302 303 306 308 313 313 317 318 315 312 310 309 311 310 312 318 317 318 315 314 319
252 254 258 263 265 266 268 270 273 277 281 288 293 298 300 302 302 302 303 304 308 310 312 316 317 314 309 306 312 309 304 311 313 310 314 311 311 318
264 265 266 270 270 269 271 274 279 282 288 292 294 297 299 299 300 303 304 306 308 309 309 313 313 312 304 305 302 305 317 316 315 312 316 315 315 316
271 268 270 270 271 272 274 276 280 283 285 288 292 294 297 299 301 303 304 304 307 308 308 312 314 310 309 306 299 309 316 320 318 311 313 308 310 314
285 282 278 275 275 275 275 275 276 278 281 285 289 291 294 295 299 302 302 303 306 307 308 310 312 310 306 301 304 309 315 321 325 321 320 312 301 302
290 287 285 282 278 276 276 276 277 278 280 283 285 289 292 295 299 298 298 302 304 305 306 306 307 306 307 308 308 310 314 319 324 326 327 334 322 308